Overview Statistics Trail Chart Weather Telemetry Raw packets
 

This is the latest recevied weather packets stored in our database for station/object VA2RBQ-7. If no packets are shown the sender has not sent any weather packets the latest 10 day(s).

<< 25 26 27 28 29 30 31 >>
Time Temp. Humidity Pressure Rain* Wind** Luminosity Snow
1788371182 16.67° C 58% 1025.6 hPa 0 mm - - -
1788370879 15° C 58% 1025.6 hPa 0 mm - - -
1788370576 14.44° C 58% 1025.6 hPa 0 mm - - -
1788370274 14.44° C 58% 1025.8 hPa 0 mm - - -
1788369971 13.89° C 58% 1025.7 hPa 0 mm - - -
1788369669 14.44° C 58% 1025.8 hPa 0 mm - - -
1788369366 15° C 58% 1025.8 hPa 0 mm - - -
1788369063 14.44° C 58% 1025.8 hPa 0 mm - - -
1788368761 14.44° C 58% 1025.8 hPa 0 mm - - -
1788368458 14.44° C 58% 1025.8 hPa 0 mm - - -
1788368156 14.44° C 58% 1025.8 hPa 0 mm - - -
1788367853 15° C 58% 1025.8 hPa 0 mm - - -
1788367550 16.11° C 58% 1025.8 hPa 0 mm - - -
1788367248 16.67° C 58% 1025.9 hPa 0 mm - - -
1788366945 15.56° C 58% 1025.8 hPa 0 mm - - -
1788366643 16.11° C 58% 1025.8 hPa 0 mm - - -
1788366340 15.56° C 58% 1025.8 hPa 0 mm - - -
1788366037 14.44° C 58% 1025.9 hPa 0 mm - - -
1788365735 14.44° C 58% 1025.9 hPa 0 mm - - -
1788365432 16.67° C 58% 1025.8 hPa 0 mm - - -
1788364827 17.78° C 57% 1025.9 hPa 0 mm - - -
1788364524 16.11° C 57% 1025.9 hPa 0 mm - - -
1788364222 16.67° C 57% 1025.9 hPa 0 mm - - -
1788363919 17.22° C 57% 1025.8 hPa 0 mm - - -
1788363617 16.11° C 57% 1025.9 hPa 0 mm - - -

* Rain since midnight (hover to see other rain measurements)
** Current wind speed in m/s (hover to see current wind gust speed)